Baku, Azerbaijan

7:16 PM +04 on November 20, 2018 (GMT +0400)
Bina

Weather History for UBBB - February, 2018

Change the Weather History Date:

Wednesday, February 7, 2018

  Actual Average Record
Temperature  
Mean Temperature 44 °F -  
Max Temperature 47 °F - - ()
Min Temperature 41 °F - - ()
Degree Days  
Heating Degree Days 21    
Moisture  
Dew Point 39 °F    
Average Humidity 84    
Maximum Humidity 93    
Minimum Humidity 59    
Precipitation  
Precipitation 0.00 in - - ()
Sea Level Pressure  
Sea Level Pressure 30.44 in    
Wind  
Wind Speed 15 mph ()    
Max Wind Speed 23 mph    
Max Gust Speed -    
Visibility 6.2 miles    
Events      
T = Trace of Precipitation, MM = Missing Value Source: Averaged Metar Reports

Daily Weather History Graph

Daily Weather History Graph

Search for Another Location

Airport or City:

Astronomy

Feb. 07, 2018 Rise Set
Actual Time 7:43 AM +04 6:04 PM +04
Civil Twilight 7:14 AM +04 6:33 PM +04
Nautical Twilight 6:42 AM +04 7:05 PM +04
Astronomical Twilight 6:10 AM +04 7:37 PM +04
Moon 12:37 AM +04 (2/7) 11:45 AM +04 (2/7)
Length of Visible Light 11h 18m
Length of Day
10h 21m
Waning Gibbous, 53% of the Moon is Illuminated
Feb 7
Waning Gibbous
Feb 7
Last Quarter
Feb 16
New
Feb 23
First Quarter
Mar 2
Full

Hourly Weather History & Observations

Time (+04) Temp. Windchill Dew Point Humidity Pressure Visibility Wind Dir Wind Speed Gust Speed Precip Events Conditions
12:00 AM 41.0 °F 33.5 °F 39.2 °F 93% 30.36 in 6.2 mi NNW 13.8 mph - N/A   Mostly Cloudy
12:30 AM 42.8 °F 35.4 °F 41.0 °F 93% 30.36 in 6.2 mi NW 15.0 mph - N/A   Overcast
1:00 AM 42 °F - 39 °F 87% 30.36 in 6 mi WNW 15.7 mph - -   Overcast
1:00 AM 42.8 °F 35.1 °F 41.0 °F 93% 30.36 in 6.2 mi NNW 16.1 mph - N/A   Overcast
1:30 AM 42.8 °F 35.4 °F 41.0 °F 93% 30.36 in 6.2 mi NW 15.0 mph - N/A   Overcast
2:00 AM 41.0 °F 32.8 °F 39.2 °F 93% 30.36 in 6.2 mi NW 16.1 mph - N/A   Overcast
2:30 AM 41.0 °F 33.1 °F 39.2 °F 93% 30.36 in 6.2 mi NNW 15.0 mph - N/A   Overcast
3:00 AM 42.8 °F 35.1 °F 41.0 °F 93% 30.36 in 6.2 mi NNW 16.1 mph - N/A   Overcast
3:30 AM 41.0 °F 32.5 °F 39.2 °F 93% 30.36 in 6.2 mi NNW 17.3 mph - N/A   Overcast
4:00 AM 41 °F - 39 °F 91% 30.37 in 6 mi WNW 17.9 mph - -   Overcast
4:00 AM 42.8 °F 35.1 °F 41.0 °F 93% 30.36 in 6.2 mi NNW 16.1 mph - N/A   Overcast
4:30 AM 42.8 °F 35.4 °F 41.0 °F 93% 30.36 in 6.2 mi NW 15.0 mph - N/A   Overcast
5:00 AM 42.8 °F 35.1 °F 41.0 °F 93% 30.36 in 6.2 mi NW 16.1 mph - N/A   Overcast
5:30 AM 42.8 °F 35.1 °F 41.0 °F 93% 30.39 in 6.2 mi NW 16.1 mph - N/A   Overcast
6:00 AM 42.8 °F 35.4 °F 41.0 °F 93% 30.39 in 6.2 mi NW 15.0 mph - N/A   Overcast
6:30 AM 42.8 °F 35.1 °F 41.0 °F 93% 30.39 in 6.2 mi NW 16.1 mph - N/A   Overcast
7:00 AM 42 °F - 39 °F 87% 30.41 in 6 mi WNW 17.9 mph - -   Overcast
7:00 AM 42.8 °F 35.1 °F 41.0 °F 93% 30.39 in 6.2 mi NW 16.1 mph - N/A   Overcast
7:30 AM 42.8 °F 34.8 °F 41.0 °F 93% 30.42 in 6.2 mi NNW 17.3 mph - N/A   Overcast
8:00 AM 42.8 °F 34.5 °F 41.0 °F 93% 30.42 in 6.2 mi NNW 18.4 mph - N/A   Overcast
8:30 AM 42.8 °F 34.5 °F 41.0 °F 93% 30.45 in 6.2 mi NNW 18.4 mph - N/A   Mostly Cloudy
9:00 AM 42.8 °F 34.5 °F 41.0 °F 93% 30.45 in 6.2 mi NNW 18.4 mph - N/A   Mostly Cloudy
9:30 AM 42.8 °F 34.0 °F 41.0 °F 93% 30.45 in 6.2 mi NNW 20.7 mph - N/A   Mostly Cloudy
10:00 AM 43 °F - 41 °F 88% 30.47 in 6 mi WNW 22.4 mph - -   Overcast
10:00 AM 44.6 °F 36.9 °F 41.0 °F 87% 30.48 in 6.2 mi NNW 18.4 mph - N/A   Mostly Cloudy
10:30 AM 44.6 °F 36.4 °F 41.0 °F 87% 30.48 in 6.2 mi NW 20.7 mph - N/A   Mostly Cloudy
11:00 AM 44.6 °F 36.6 °F 41.0 °F 87% 30.48 in 6.2 mi NNW 19.6 mph - N/A   Mostly Cloudy
11:30 AM 44.6 °F 36.1 °F 41.0 °F 87% 30.48 in 6.2 mi NNW 21.9 mph - N/A   Mostly Cloudy
12:00 PM 46.4 °F 38.7 °F 41.0 °F 81% 30.48 in 6.2 mi NNW 20.7 mph - N/A   Mostly Cloudy
12:30 PM 46.4 °F 38.7 °F 41.0 °F 81% 30.48 in 6.2 mi NNW 20.7 mph - N/A   Mostly Cloudy
1:00 PM 47 °F - 39 °F 65% 30.46 in 6 mi NW 20.1 mph - -   Mostly Cloudy
1:00 PM 46.4 °F 38.5 °F 39.2 °F 76% 30.45 in 6.2 mi NNW 21.9 mph - N/A   Mostly Cloudy
1:30 PM 46.4 °F 38.5 °F 37.4 °F 71% 30.45 in 6.2 mi NNW 21.9 mph - N/A   Mostly Cloudy
2:00 PM 46.4 °F 38.3 °F 37.4 °F 71% 30.45 in 6.2 mi NNW 23.0 mph - N/A   Scattered Clouds
2:30 PM 48.2 °F - 39.2 °F 71% 30.45 in 6.2 mi NNW 19.6 mph - N/A   Scattered Clouds
3:00 PM 48.2 °F - 37.4 °F 66% 30.45 in 6.2 mi NNW 20.7 mph - N/A   Scattered Clouds
3:30 PM 46.4 °F 38.5 °F 35.6 °F 66% 30.45 in 6.2 mi NNW 21.9 mph - N/A   Scattered Clouds
4:00 PM 46 °F - 36 °F 59% 30.47 in 6 mi NW 22.4 mph - -   Partly Cloudy
4:00 PM 46.4 °F 38.7 °F 35.6 °F 66% 30.45 in 6.2 mi NNW 20.7 mph - N/A   Scattered Clouds
4:30 PM 44.6 °F 36.6 °F 35.6 °F 71% 30.48 in 6.2 mi NNW 19.6 mph - N/A   Scattered Clouds
5:00 PM 44.6 °F 36.6 °F 35.6 °F 71% 30.48 in 6.2 mi NNW 19.6 mph - N/A   Scattered Clouds
5:30 PM 44.6 °F 37.8 °F 37.4 °F 76% 30.48 in 6.2 mi NNW 15.0 mph - N/A   Mostly Cloudy
6:00 PM 42.8 °F 35.8 °F 37.4 °F 81% 30.48 in 6.2 mi NNW 13.8 mph - N/A   Mostly Cloudy
6:30 PM 42.8 °F 35.8 °F 37.4 °F 81% 30.51 in 6.2 mi NNW 13.8 mph - N/A   Mostly Cloudy
7:00 PM 43 °F - 37 °F 73% 30.51 in 6 mi NW 11.2 mph - -   Partly Cloudy
7:00 PM 42.8 °F 35.8 °F 37.4 °F 81% 30.51 in 6.2 mi North 13.8 mph - N/A   Mostly Cloudy
7:30 PM 42.8 °F 36.2 °F 37.4 °F 81% 30.51 in 6.2 mi NNW 12.7 mph - N/A   Mostly Cloudy
8:00 PM 41.0 °F 34.3 °F 37.4 °F 87% 30.51 in 6.2 mi NNW 11.5 mph - N/A   Mostly Cloudy
8:30 PM 41.0 °F 34.7 °F 37.4 °F 87% 30.51 in 6.2 mi NNW 10.4 mph - N/A   Mostly Cloudy
9:00 PM 41.0 °F 34.7 °F 37.4 °F 87% 30.51 in 6.2 mi NNW 10.4 mph - N/A   Mostly Cloudy
9:30 PM 42.8 °F 37.5 °F 37.4 °F 81% 30.51 in 6.2 mi NNW 9.2 mph - N/A   Mostly Cloudy
10:00 PM 42 °F - 37 °F 76% 30.52 in 6 mi NNW 11.2 mph - -   Partly Cloudy
10:00 PM 42.8 °F 37.5 °F 37.4 °F 81% 30.51 in 6.2 mi NNW 9.2 mph - N/A   Overcast
10:30 PM 42.8 °F 37.0 °F 37.4 °F 81% 30.51 in 6.2 mi NNW 10.4 mph - N/A   Overcast
11:00 PM 42.8 °F 37.0 °F 37.4 °F 81% 30.51 in 6.2 mi NNW 10.4 mph - N/A   Overcast
11:30 PM 42.8 °F 37.0 °F 37.4 °F 81% 30.51 in 6.2 mi NNW 10.4 mph - N/A   Overcast